AEA45C LPPR-LEMD

Flight info

Callsign AEA45C
Flight time 0h 49m
Altitude 28000
Route BELDU UL155 ADORO L155 ZMR
Aircraft B738/M-SDE2E3FGHIRWXY/LB1

Departure

Time 2026-05-03 20:15
Airport Francisco de Sá Carneiro Airport (LPPR)

Arrival

Time 2026-05-03 21:05
Airport Adolfo Suárez Madrid–Barajas Airport (LEMD)
Time Latitude Longitude Altitude Speed Heading
2026-05-03 20:15 41.31208 -8.69832 3706 ft 248 kts 348°
2026-05-03 20:15 41.32927 -8.70277 4596 ft 254 kts 347°
2026-05-03 20:15 41.34675 -8.70742 5505 ft 258 kts 347°
2026-05-03 20:15 41.36450 -8.71219 6396 ft 263 kts 347°
2026-05-03 20:16 41.38259 -8.71707 7213 ft 268 kts 347°
2026-05-03 20:16 41.40139 -8.71688 8010 ft 278 kts 13°
2026-05-03 20:16 41.41884 -8.70508 8808 ft 288 kts 39°
2026-05-03 20:16 41.43119 -8.68380 9616 ft 297 kts 65°
2026-05-03 20:17 41.43636 -8.65689 10331 ft 306 kts 84°
2026-05-03 20:17 41.43799 -8.62759 10584 ft 330 kts 88°
2026-05-03 20:17 41.43878 -8.59588 10816 ft 353 kts 89°
2026-05-03 20:17 41.43936 -8.56263 11377 ft 363 kts 89°
2026-05-03 20:18 41.43997 -8.52880 12146 ft 367 kts 89°
2026-05-03 20:18 41.44067 -8.49464 12948 ft 370 kts 89°
2026-05-03 20:18 41.44147 -8.46019 13718 ft 374 kts 89°
2026-05-03 20:18 41.44234 -8.42535 14412 ft 378 kts 89°
2026-05-03 20:19 41.44327 -8.39015 15060 ft 383 kts 89°
2026-05-03 20:19 41.44422 -8.35446 15719 ft 387 kts 89°
2026-05-03 20:19 41.44520 -8.31840 16369 ft 392 kts 89°
2026-05-03 20:19 41.44618 -8.28194 17011 ft 396 kts 90°
2026-05-03 20:20 41.44717 -8.24503 17654 ft 401 kts 90°
2026-05-03 20:20 41.44816 -8.20771 18286 ft 405 kts 90°
2026-05-03 20:20 41.44915 -8.16999 18815 ft 410 kts 90°
2026-05-03 20:20 41.45014 -8.13174 19358 ft 414 kts 90°
2026-05-03 20:21 41.45112 -8.09322 19921 ft 417 kts 90°
2026-05-03 20:21 41.45210 -8.05440 20462 ft 421 kts 90°
2026-05-03 20:21 41.45308 -8.01526 20975 ft 425 kts 91°
2026-05-03 20:21 41.45405 -7.97605 21489 ft 429 kts 91°
2026-05-03 20:22 41.45501 -7.93609 22001 ft 433 kts 91°
2026-05-03 20:22 41.45598 -7.89576 22516 ft 437 kts 91°
2026-05-03 20:22 41.45695 -7.85458 23020 ft 441 kts 91°
2026-05-03 20:22 41.45789 -7.81353 23487 ft 445 kts 91°
2026-05-03 20:23 41.45884 -7.77219 23892 ft 449 kts 91°
2026-05-03 20:23 41.45976 -7.73102 24294 ft 451 kts 91°
2026-05-03 20:23 41.46069 -7.68907 24693 ft 454 kts 91°
2026-05-03 20:23 41.46161 -7.64678 25066 ft 458 kts 91°
2026-05-03 20:24 41.46252 -7.60419 25496 ft 460 kts 92°
2026-05-03 20:24 41.46342 -7.56158 26002 ft 459 kts 92°
2026-05-03 20:24 41.46431 -7.51901 26541 ft 458 kts 92°
2026-05-03 20:24 41.46490 -7.49035 26905 ft 457 kts 92°
2026-05-03 20:25 41.46576 -7.44802 27425 ft 457 kts 92°
2026-05-03 20:25 41.46658 -7.40624 27935 ft 456 kts 92°
2026-05-03 20:25 41.46739 -7.36371 27980 ft 462 kts 92°
2026-05-03 20:25 41.46819 -7.32089 27999 ft 461 kts 92°
2026-05-03 20:26 41.46899 -7.27838 27978 ft 456 kts 92°
2026-05-03 20:26 41.46977 -7.23629 27991 ft 454 kts 92°
2026-05-03 20:26 41.47051 -7.19415 27995 ft 456 kts 92°
2026-05-03 20:26 41.47124 -7.15187 27997 ft 457 kts 92°
2026-05-03 20:27 41.47196 -7.10936 27988 ft 459 kts 92°
2026-05-03 20:27 41.47266 -7.06685 27999 ft 459 kts 92°
2026-05-03 20:27 41.47336 -7.02424 27993 ft 460 kts 92°
2026-05-03 20:27 41.47404 -6.98165 27980 ft 459 kts 92°
2026-05-03 20:28 41.47471 -6.93911 27977 ft 458 kts 92°
2026-05-03 20:28 41.47536 -6.89669 27977 ft 457 kts 92°
2026-05-03 20:28 41.47600 -6.85439 27974 ft 456 kts 93°
2026-05-03 20:28 41.47661 -6.81219 27978 ft 455 kts 93°
2026-05-03 20:29 41.47720 -6.77008 27981 ft 454 kts 93°
2026-05-03 20:29 41.47778 -6.72801 27977 ft 453 kts 93°
2026-05-03 20:29 41.47834 -6.68597 27979 ft 453 kts 93°
2026-05-03 20:29 41.47889 -6.64407 27974 ft 452 kts 93°
2026-05-03 20:30 41.47942 -6.60211 27979 ft 452 kts 93°
2026-05-03 20:30 41.47993 -6.56021 27989 ft 452 kts 93°
2026-05-03 20:30 41.48043 -6.51832 27983 ft 453 kts 93°
2026-05-03 20:30 41.48092 -6.47621 27986 ft 453 kts 93°
2026-05-03 20:31 41.48139 -6.43407 27982 ft 454 kts 93°
2026-05-03 20:31 41.48185 -6.39205 27979 ft 454 kts 93°
2026-05-03 20:31 41.48230 -6.34980 27980 ft 455 kts 93°
2026-05-03 20:31 41.48273 -6.30768 27982 ft 455 kts 93°
2026-05-03 20:32 41.48359 -6.26541 27974 ft 457 kts 90°
2026-05-03 20:32 41.48616 -6.22314 27985 ft 457 kts 88°
2026-05-03 20:32 41.48947 -6.18104 27991 ft 458 kts 87°
2026-05-03 20:32 41.49303 -6.13874 27982 ft 458 kts 87°
2026-05-03 20:33 41.49653 -6.09655 27976 ft 457 kts 87°
2026-05-03 20:33 41.49988 -6.05447 27976 ft 456 kts 88°
2026-05-03 20:33 41.50306 -6.01292 27979 ft 456 kts 88°
2026-05-03 20:33 41.50619 -5.97084 27979 ft 456 kts 88°
2026-05-03 20:34 41.50931 -5.92827 27981 ft 456 kts 88°
2026-05-03 20:34 41.51232 -5.88675 27977 ft 455 kts 88°
2026-05-03 20:34 41.51537 -5.84469 27986 ft 455 kts 88°
2026-05-03 20:34 41.51840 -5.80262 27980 ft 455 kts 88°
2026-05-03 20:35 41.52142 -5.76066 27982 ft 456 kts 88°
2026-05-03 20:35 41.52445 -5.71836 27982 ft 456 kts 88°
2026-05-03 20:35 41.52454 -5.67648 27965 ft 447 kts 104°
2026-05-03 20:35 41.51567 -5.63745 27995 ft 436 kts 121°
2026-05-03 20:36 41.50006 -5.60336 27974 ft 426 kts 136°
2026-05-03 20:36 41.47947 -5.57551 27992 ft 421 kts 143°
2026-05-03 20:36 41.45776 -5.54915 27980 ft 423 kts 144°
2026-05-03 20:36 41.43578 -5.52300 27977 ft 424 kts 145°
2026-05-03 20:37 41.41374 -5.49680 27974 ft 424 kts 144°
2026-05-03 20:37 41.39179 -5.47054 27978 ft 423 kts 144°
2026-05-03 20:37 41.37000 -5.44427 27972 ft 422 kts 144°
2026-05-03 20:37 41.34839 -5.41808 27980 ft 421 kts 144°
2026-05-03 20:38 41.32676 -5.39180 27977 ft 419 kts 144°
2026-05-03 20:38 41.30526 -5.36566 27980 ft 418 kts 144°
2026-05-03 20:38 41.28381 -5.33958 27985 ft 417 kts 144°
2026-05-03 20:38 41.26241 -5.31359 27984 ft 417 kts 144°
2026-05-03 20:39 41.24096 -5.28756 27984 ft 417 kts 144°
2026-05-03 20:39 41.21976 -5.26188 27978 ft 417 kts 144°
2026-05-03 20:39 41.19831 -5.23590 27985 ft 417 kts 144°
2026-05-03 20:39 41.17684 -5.20994 27982 ft 418 kts 144°
2026-05-03 20:40 41.15534 -5.18396 27996 ft 418 kts 144°
2026-05-03 20:40 41.13380 -5.15795 27984 ft 419 kts 144°
2026-05-03 20:40 41.11222 -5.13192 27993 ft 420 kts 144°
2026-05-03 20:40 41.09080 -5.10605 27811 ft 411 kts 144°
2026-05-03 20:41 41.06976 -5.08066 27313 ft 408 kts 144°
2026-05-03 20:41 41.04872 -5.05535 26665 ft 410 kts 144°
2026-05-03 20:41 41.02751 -5.02991 26023 ft 414 kts 144°
2026-05-03 20:41 41.00599 -5.00413 25390 ft 419 kts 144°
2026-05-03 20:42 40.98436 -4.97822 24767 ft 419 kts 143°
2026-05-03 20:42 40.96278 -4.95232 24160 ft 419 kts 143°
2026-05-03 20:42 40.94122 -4.92649 23546 ft 418 kts 143°
2026-05-03 20:42 40.91967 -4.90068 22840 ft 417 kts 143°
2026-05-03 20:43 40.89818 -4.87496 22138 ft 416 kts 143°
2026-05-03 20:43 40.87678 -4.84939 21460 ft 414 kts 143°
2026-05-03 20:43 40.85543 -4.82392 20797 ft 412 kts 142°
2026-05-03 20:43 40.83421 -4.79861 20138 ft 410 kts 142°
2026-05-03 20:44 40.81306 -4.77342 19505 ft 408 kts 142°
2026-05-03 20:44 40.79200 -4.74836 18887 ft 406 kts 142°
2026-05-03 20:44 40.77107 -4.72346 18273 ft 404 kts 142°
2026-05-03 20:44 40.75024 -4.69872 17584 ft 402 kts 142°
2026-05-03 20:45 40.72951 -4.67411 16890 ft 400 kts 142°
2026-05-03 20:45 40.70920 -4.65001 16231 ft 397 kts 142°
2026-05-03 20:45 40.68868 -4.62569 15575 ft 395 kts 142°
2026-05-03 20:45 40.66836 -4.60161 15190 ft 386 kts 142°
2026-05-03 20:46 40.64881 -4.57845 15054 ft 371 kts 142°
2026-05-03 20:46 40.63002 -4.55620 14988 ft 356 kts 142°
2026-05-03 20:46 40.61251 -4.53409 14977 ft 342 kts 138°
2026-05-03 20:46 40.59669 -4.51160 14971 ft 328 kts 137°
2026-05-03 20:47 40.58168 -4.48949 14974 ft 320 kts 136°
2026-05-03 20:47 40.56685 -4.46766 14981 ft 321 kts 137°
2026-05-03 20:47 40.55189 -4.44582 14989 ft 323 kts 137°
2026-05-03 20:47 40.53674 -4.42385 14996 ft 324 kts 137°
2026-05-03 20:48 40.52152 -4.40188 14991 ft 326 kts 137°
2026-05-03 20:48 40.50620 -4.37983 14981 ft 325 kts 137°
2026-05-03 20:48 40.49117 -4.35820 14931 ft 317 kts 137°
2026-05-03 20:48 40.47656 -4.33721 14864 ft 306 kts 137°
2026-05-03 20:49 40.46242 -4.31692 14789 ft 296 kts 137°
2026-05-03 20:49 40.44875 -4.29734 14705 ft 286 kts 138°
2026-05-03 20:49 40.43538 -4.27823 14475 ft 283 kts 138°
2026-05-03 20:49 40.42221 -4.25946 14197 ft 282 kts 138°
2026-05-03 20:50 40.40882 -4.24040 13675 ft 290 kts 138°
2026-05-03 20:50 40.39476 -4.22043 12886 ft 305 kts 137°
2026-05-03 20:50 40.38009 -4.19954 12134 ft 317 kts 136°
2026-05-03 20:50 40.36529 -4.17841 11976 ft 309 kts 136°
2026-05-03 20:51 40.35102 -4.15801 11890 ft 298 kts 136°
2026-05-03 20:51 40.33985 -4.13551 11792 ft 295 kts 115°
2026-05-03 20:51 40.33333 -4.11045 11739 ft 286 kts 112°
2026-05-03 20:51 40.32732 -4.08584 11544 ft 281 kts 111°
2026-05-03 20:52 40.32139 -4.06145 11256 ft 281 kts 111°
2026-05-03 20:52 40.31542 -4.03712 10969 ft 280 kts 112°
2026-05-03 20:52 40.30943 -4.01290 10710 ft 279 kts 112°
2026-05-03 20:52 40.30345 -3.98883 10444 ft 277 kts 112°
2026-05-03 20:53 40.29746 -3.96487 10173 ft 276 kts 112°
2026-05-03 20:53 40.29148 -3.94105 9906 ft 275 kts 112°
2026-05-03 20:53 40.28551 -3.91728 9626 ft 274 kts 112°
2026-05-03 20:53 40.27956 -3.89368 9333 ft 273 kts 112°
2026-05-03 20:54 40.27360 -3.87004 9032 ft 273 kts 112°
2026-05-03 20:54 40.26174 -3.82305 8465 ft 271 kts 111°
2026-05-03 20:54 40.25581 -3.79960 8171 ft 271 kts 112°
2026-05-03 20:55 40.24988 -3.77625 8057 ft 271 kts 111°
2026-05-03 20:55 40.24391 -3.75272 8029 ft 272 kts 111°
2026-05-03 20:55 40.23797 -3.72932 8013 ft 270 kts 111°
2026-05-03 20:55 40.23209 -3.70615 7850 ft 267 kts 112°
2026-05-03 20:56 40.22620 -3.68300 7519 ft 269 kts 111°
2026-05-03 20:56 40.22026 -3.65972 7225 ft 270 kts 111°
2026-05-03 20:56 40.21435 -3.63650 7062 ft 268 kts 111°
2026-05-03 20:56 40.20836 -3.61305 7028 ft 273 kts 111°
2026-05-03 20:57 40.20239 -3.58961 7011 ft 271 kts 111°
2026-05-03 20:57 40.19650 -3.56649 6962 ft 263 kts 112°
2026-05-03 20:57 40.19081 -3.54420 6879 ft 254 kts 112°
2026-05-03 20:57 40.18516 -3.52223 6396 ft 264 kts 112°
2026-05-03 20:58 40.17936 -3.49873 5914 ft 273 kts 105°
2026-05-03 20:58 40.17987 -3.47429 5696 ft 272 kts 73°
2026-05-03 20:58 40.18908 -3.45360 5610 ft 260 kts 42°
2026-05-03 20:58 40.20372 -3.44056 5556 ft 245 kts 21°
2026-05-03 20:59 40.21887 -3.43199 5494 ft 236 kts 19°
2026-05-03 20:59 40.23387 -3.42380 5341 ft 231 kts 19°
2026-05-03 20:59 40.24867 -3.41563 5132 ft 230 kts 19°
2026-05-03 20:59 40.26338 -3.40742 5046 ft 231 kts 19°
2026-05-03 21:00 40.27822 -3.39908 5010 ft 232 kts 19°
2026-05-03 21:00 40.28322 -3.39626 5009 ft 232 kts 19°
2026-05-03 21:00 40.30803 -3.38381 4984 ft 225 kts 359°
2026-05-03 21:00 40.32241 -3.38816 5020 ft 210 kts 325°
2026-05-03 21:01 40.33517 -3.39796 5015 ft 214 kts 324°
2026-05-03 21:01 40.34785 -3.40847 4951 ft 218 kts 320°
2026-05-03 21:01 40.36007 -3.42032 4709 ft 218 kts 317°
2026-05-03 21:01 40.37188 -3.43238 4419 ft 211 kts 317°
2026-05-03 21:02 40.38328 -3.44405 4143 ft 205 kts 317°
2026-05-03 21:02 40.39430 -3.45531 3894 ft 196 kts 317°
2026-05-03 21:02 40.40483 -3.46605 3637 ft 187 kts 317°
2026-05-03 21:02 40.41487 -3.47630 3390 ft 179 kts 317°
2026-05-03 21:03 40.42440 -3.48603 3156 ft 168 kts 318°
2026-05-03 21:03 40.43308 -3.49488 2953 ft 149 kts 319°
2026-05-03 21:03 40.44102 -3.50299 2730 ft 142 kts 320°
2026-05-03 21:03 40.44884 -3.51097 2549 ft 144 kts 320°
2026-05-03 21:04 40.45674 -3.51886 2467 ft 143 kts 321°
2026-05-03 21:04 40.46475 -3.52698 2234 ft 145 kts 317°
2026-05-03 21:04 40.47245 -3.53538 2049 ft 145 kts 320°
2026-05-03 21:04 40.48015 -3.54302 1980 ft 125 kts 323°
2026-05-03 21:05 40.48393 -3.54680 1982 ft 46 kts 322°
2026-05-03 21:05 40.48634 -3.54924 1979 ft 41 kts 323°
2026-05-03 21:05 40.48767 -3.55129 1979 ft 28 kts 300°
2026-05-03 21:05 40.48809 -3.55246 1981 ft 0 kts 292°
2026-05-03 21:06 40.48825 -3.55296 1981 ft 16 kts 292°
2026-05-03 21:06 40.48920 -3.55491 1979 ft 32 kts 318°
2026-05-03 21:07 40.49058 -3.55634 1982 ft 17 kts 322°
2026-05-03 21:07 40.49153 -3.55731 1980 ft 17 kts 322°
2026-05-03 21:07 40.49243 -3.55824 1979 ft 16 kts 322°
2026-05-03 21:07 40.49299 -3.55940 1983 ft 8 kts 273°
2026-05-03 21:08 40.49299 -3.55996 1983 ft 0 kts 270°